Location: Asheville, NC
(35.6000°N, 82.5500°W)
Time: 02:25:02

FO-29 - Pass Details

Date: 09 March 2018
Orbit: 800 x 1321 km, 98.5° (Epoch: 16 March)

Event Time Altitude Azimuth Distance (km) Brightness Sun altitude
Rises 19:27:04 0° 23° (NNE) 3,978 12.5 -11.9°
Reaches altitude 10° 19:29:48 10° 31° (NNE) 3,086 11.8 -12.4°
Maximum altitude 19:36:24 38° 98° (E) 1,815 10.4 -13.8°
Drops below altitude 10° 19:43:26 10° 163° (SSE) 3,310 12.0 -15.2°
Sets 19:46:26 0° 171° (S) 4,298 12.7 -15.8°
